����,���ϕ���(m/s),���ϕ���,�ő�u�ԕ���(m/s),�ő啗��������,�C��(��),���x(%),10���Ԉړ��ώZ�J��(mm),1���Ԉړ��ώZ�J��(mm),���J��(mm),�݌v�J��(mm)
2021-02-22T00:00:00+09:00,0.7,�k�k��,1.1,�k�k��,6.4,83.1,0,0,0,0
2021-02-22T00:01:00+09:00,0.6,�k�k��,1.1,�k�k��,6.5,82.6,0,0,0,0
2021-02-22T00:02:00+09:00,0.6,�k,1.1,�k�k��,6.6,83.7,0,0,0,0
2021-02-22T00:03:00+09:00,0.6,�k�k��,1.5,�k�k��,6.5,83.4,0,0,0,0
2021-02-22T00:04:00+09:00,0.7,�k�k��,1.6,�k�k��,6.3,81.7,0,0,0,0
2021-02-22T00:05:00+09:00,0.6,�k�k��,1.6,�k�k��,6.3,82.1,0,0,0,0
2021-02-22T00:06:00+09:00,0.6,�k�k��,1.6,�k�k��,6.2,81.9,0,0,0,0
2021-02-22T00:07:00+09:00,0.6,�k��,1.6,�k�k��,6.1,82.2,0,0,0,0
2021-02-22T00:08:00+09:00,0.5,�k��,1.6,�k�k��,6,82.3,0,0,0,0
2021-02-22T00:09:00+09:00,0.5,�k��,1.6,�k�k��,6.3,83.7,0,0,0,0
2021-02-22T00:10:00+09:00,0.5,�k��,1.6,�k�k��,6.3,85,0,0,0,0
2021-02-22T00:11:00+09:00,0.5,���k��,1.6,�k�k��,6.3,83.9,0,0,0,0
2021-02-22T00:12:00+09:00,0.6,���k��,1.6,�k�k��,6.3,83.6,0,0,0,0
2021-02-22T00:13:00+09:00,0.5,���k��,1.6,�k�k��,6.3,83.7,0,0,0,0
2021-02-22T00:14:00+09:00,0.5,��,1,�쐼,6.3,84,0,0,0,0
2021-02-22T00:15:00+09:00,0.5,��,1,�쐼,6.1,84,0,0,0,0
2021-02-22T00:16:00+09:00,0.5,��,1,�쐼,6.3,84.1,0,0,0,0
2021-02-22T00:17:00+09:00,0.5,��,1.5,��,6,83.8,0,0,0,0
2021-02-22T00:18:00+09:00,0.6,��,1.5,��,5.9,82.9,0,0,0,0
2021-02-22T00:19:00+09:00,0.6,���쓌,1.5,��,5.8,83.9,0,0,0,0
2021-02-22T00:20:00+09:00,0.6,��쓌,1.5,��,5.7,82.2,0,0,0,0
2021-02-22T00:21:00+09:00,0.6,�쓌,1.5,��,6.1,86.5,0,0,0,0
2021-02-22T00:22:00+09:00,0.7,��,1.5,��,5.9,84.8,0,0,0,0
2021-02-22T00:23:00+09:00,0.7,�k,1.5,��,5.8,84.7,0,0,0,0
2021-02-22T00:24:00+09:00,0.7,�k�k��,1.6,�쐼,5.4,83.5,0,0,0,0
2021-02-22T00:25:00+09:00,0.7,���k��,1.6,�쐼,5.4,83.8,0,0,0,0
2021-02-22T00:26:00+09:00,0.7,���k��,1.8,��,5.3,84.2,0,0,0,0
2021-02-22T00:27:00+09:00,0.7,�k�k��,1.8,��,5.5,85.1,0,0,0,0
2021-02-22T00:28:00+09:00,0.7,�k�k��,1.8,��,5.6,86.3,0,0,0,0
2021-02-22T00:29:00+09:00,0.6,�k,1.8,��,5.7,86.8,0,0,0,0
2021-02-22T00:30:00+09:00,0.6,�k��,1.8,��,5.9,87.7,0,0,0,0
2021-02-22T00:31:00+09:00,0.7,�k��,1.8,��,5.8,86.6,0,0,0,0
2021-02-22T00:32:00+09:00,0.7,�k��,1.8,��,5.9,86.7,0,0,0,0
2021-02-22T00:33:00+09:00,0.7,�k�k��,1.8,��,6,87,0,0,0,0
2021-02-22T00:34:00+09:00,0.7,�k��,1.8,��,6,86.6,0,0,0,0
2021-02-22T00:35:00+09:00,0.7,�k��,1.8,��,6,86.4,0,0,0,0
2021-02-22T00:36:00+09:00,0.6,�k�k��,1.6,��,6,85.9,0,0,0,0
2021-02-22T00:37:00+09:00,0.7,�k�k��,1.6,��,6.1,85.9,0,0,0,0
2021-02-22T00:38:00+09:00,0.7,�k�k��,1.6,��,6.1,86,0,0,0,0
2021-02-22T00:39:00+09:00,0.7,�k��,1.6,��,5.8,85.1,0,0,0,0
2021-02-22T00:40:00+09:00,0.7,�k�k��,1.6,��,5.9,85.1,0,0,0,0
2021-02-22T00:41:00+09:00,0.6,�k,1.2,��,6,85.6,0,0,0,0
2021-02-22T00:42:00+09:00,0.6,�k�k��,1,�k��,6.3,86.8,0,0,0,0
2021-02-22T00:43:00+09:00,0.5,�k,1,�k��,6,86,0,0,0,0
2021-02-22T00:44:00+09:00,0.6,�k,1.6,�k,5.9,84.7,0,0,0,0
2021-02-22T00:45:00+09:00,0.6,�k,1.6,�k,5.9,85.5,0,0,0,0
2021-02-22T00:46:00+09:00,0.7,�k,1.7,�k�k��,6,85.8,0,0,0,0
2021-02-22T00:47:00+09:00,0.7,�k�k��,1.7,�k�k��,6.1,86.3,0,0,0,0
2021-02-22T00:48:00+09:00,0.8,�k�k��,1.7,�k�k��,6.1,85.8,0,0,0,0
2021-02-22T00:49:00+09:00,0.8,�k�k��,1.7,�k�k��,6.1,85.9,0,0,0,0
2021-02-22T00:50:00+09:00,0.8,�k�k��,1.7,�k�k��,6,84.9,0,0,0,0
2021-02-22T00:51:00+09:00,0.8,�k�k��,1.7,�k�k��,5.9,85.1,0,0,0,0
2021-02-22T00:52:00+09:00,0.9,�k�k��,1.7,�k�k��,5.9,85.4,0,0,0,0
2021-02-22T00:53:00+09:00,1,�k�k��,1.7,�k�k��,6,86.1,0,0,0,0
2021-02-22T00:54:00+09:00,0.9,�k�k��,1.7,�k�k��,6,85.7,0,0,0,0
2021-02-22T00:55:00+09:00,1,�k�k��,1.7,�k�k��,6.2,86,0,0,0,0
2021-02-22T00:56:00+09:00,0.9,�k�k��,1.6,�k�k��,6.2,86,0,0,0,0
2021-02-22T00:57:00+09:00,0.9,�k��,1.6,�k�k��,6.3,85.3,0,0,0,0
2021-02-22T00:58:00+09:00,0.8,�k��,1.6,�k�k��,6.3,85.6,0,0,0,0
2021-02-22T00:59:00+09:00,0.9,�k�k��,1.6,�k�k��,6.3,85.3,0,0,0,0
2021-02-22T01:00:00+09:00,0.8,�k�k��,1.6,�k�k��,6.2,84.8,0,0,0,0
2021-02-22T01:01:00+09:00,0.9,�k�k��,1.6,�k�k��,6.1,84.4,0,0,0,0
2021-02-22T01:02:00+09:00,0.8,�k�k��,1.3,�k,6.4,85.5,0,0,0,0
2021-02-22T01:03:00+09:00,0.8,�k�k��,1.3,�k,6.4,85.5,0,0,0,0
2021-02-22T01:04:00+09:00,0.8,�k�k��,1.3,�k,6.3,84.3,0,0,0,0
2021-02-22T01:05:00+09:00,0.8,�k�k��,1.3,�k,6,83.5,0,0,0,0
2021-02-22T01:06:00+09:00,0.8,�k�k��,1.3,�k,6,83.5,0,0,0,0
2021-02-22T01:07:00+09:00,0.9,�k�k��,2,�k��,6,83.5,0,0,0,0
2021-02-22T01:08:00+09:00,0.9,�k�k��,2,�k��,6.2,84.9,0,0,0,0
2021-02-22T01:09:00+09:00,1,�k�k��,2,�k��,6.4,86.2,0,0,0,0
2021-02-22T01:10:00+09:00,1.1,�k�k��,2,�k��,6.5,85.4,0,0,0,0
2021-02-22T01:11:00+09:00,1.1,�k�k��,2,�k��,6.6,85.3,0,0,0,0
2021-02-22T01:12:00+09:00,1,�k�k��,2,�k��,6.7,84.8,0,0,0,0
2021-02-22T01:13:00+09:00,1,�k��,2,�k��,6.5,83.6,0,0,0,0
2021-02-22T01:14:00+09:00,0.9,�k�k��,2,�k��,6.5,83.4,0,0,0,0
2021-02-22T01:15:00+09:00,0.9,�k�k��,2,�k��,6.5,83.1,0,0,0,0
2021-02-22T01:16:00+09:00,0.9,�k�k��,2,�k��,6.5,83.6,0,0,0,0
2021-02-22T01:17:00+09:00,0.8,�k�k��,1.8,�k�k��,6.4,83.6,0,0,0,0
2021-02-22T01:18:00+09:00,0.7,�k�k��,1.8,�k�k��,6,81.8,0,0,0,0
2021-02-22T01:19:00+09:00,0.7,�k�k��,1.8,�k�k��,6.1,83.5,0,0,0,0
2021-02-22T01:20:00+09:00,0.7,�k�k��,1.5,�k,6.2,84.2,0,0,0,0
2021-02-22T01:21:00+09:00,0.8,�k,1.9,�k,6.1,84.7,0,0,0,0
2021-02-22T01:22:00+09:00,0.9,�k,1.9,�k,6,84,0,0,0,0
2021-02-22T01:23:00+09:00,0.9,�k,1.9,�k,5.9,84.4,0,0,0,0
2021-02-22T01:24:00+09:00,0.9,�k,1.9,�k,5.9,84.7,0,0,0,0
2021-02-22T01:25:00+09:00,0.9,�k,1.9,�k,5.9,84.8,0,0,0,0
2021-02-22T01:26:00+09:00,0.9,�k,1.9,�k,6,85.3,0,0,0,0
2021-02-22T01:27:00+09:00,0.9,�k,1.9,�k,6.1,85.8,0,0,0,0
2021-02-22T01:28:00+09:00,1,�k�k��,1.9,�k,6.5,87.1,0,0,0,0
2021-02-22T01:29:00+09:00,1,�k�k��,1.9,�k,6.8,87.3,0,0,0,0
2021-02-22T01:30:00+09:00,1,�k�k��,2.3,�k��,6.7,84.3,0,0,0,0
2021-02-22T01:31:00+09:00,1.1,�k�k��,2.4,�k��,7.1,84.1,0,0,0,0
2021-02-22T01:32:00+09:00,1.1,�k�k��,2.4,�k��,7.4,83.8,0,0,0,0
2021-02-22T01:33:00+09:00,1.1,�k�k��,2.4,�k��,7.5,82.4,0,0,0,0
2021-02-22T01:34:00+09:00,1.1,�k�k��,2.4,�k��,7.3,79.9,0,0,0,0
2021-02-22T01:35:00+09:00,1.1,�k�k��,2.4,�k��,7.2,80,0,0,0,0
2021-02-22T01:36:00+09:00,1.2,�k�k��,2.4,�k��,6.9,79,0,0,0,0
2021-02-22T01:37:00+09:00,1.1,�k�k��,2.4,�k��,6.8,78.9,0,0,0,0
2021-02-22T01:38:00+09:00,1.2,�k�k��,2.4,�k��,6.8,80.3,0,0,0,0
2021-02-22T01:39:00+09:00,1.1,�k�k��,2.4,�k��,6.9,81.4,0,0,0,0
2021-02-22T01:40:00+09:00,1.1,�k,2.4,�k��,6.8,80.9,0,0,0,0
2021-02-22T01:41:00+09:00,1.1,�k,2.4,�k��,6.9,81.8,0,0,0,0
2021-02-22T01:42:00+09:00,1.2,�k,2.4,�k��,7.2,82.7,0,0,0,0
2021-02-22T01:43:00+09:00,1.2,�k,2.4,�k��,7.4,82,0,0,0,0
2021-02-22T01:44:00+09:00,1.3,�k�k��,2.4,�k��,7.7,81.3,0,0,0,0
2021-02-22T01:45:00+09:00,1.4,�k�k��,2.4,�k��,7.8,80.2,0,0,0,0
2021-02-22T01:46:00+09:00,1.4,�k�k��,2.4,�k��,7.9,79.1,0,0,0,0
2021-02-22T01:47:00+09:00,1.5,�k�k��,2.4,�k��,7.8,76.9,0,0,0,0
2021-02-22T01:48:00+09:00,1.5,�k�k��,2.4,�k��,7.9,77.6,0,0,0,0
2021-02-22T01:49:00+09:00,1.5,�k�k��,2.4,�k��,7.7,76.2,0,0,0,0
2021-02-22T01:50:00+09:00,1.6,�k��,2.4,�k��,7.3,75.2,0,0,0,0
2021-02-22T01:51:00+09:00,1.4,�k��,2.4,�k��,7.2,76,0,0,0,0
2021-02-22T01:52:00+09:00,1.4,�k�k��,2,�k�k��,7.4,78.6,0,0,0,0
2021-02-22T01:53:00+09:00,1.4,�k�k��,2,�k�k��,7.4,78.9,0,0,0,0
2021-02-22T01:54:00+09:00,1.3,�k�k��,1.9,�k��,7.7,79.9,0,0,0,0
2021-02-22T01:55:00+09:00,1.3,�k�k��,1.9,�k��,7.8,79.3,0,0,0,0
2021-02-22T01:56:00+09:00,1.2,�k�k��,1.9,�k��,7.9,77.7,0,0,0,0
2021-02-22T01:57:00+09:00,1.1,�k�k��,1.9,�k��,8.7,79.3,0,0,0,0
2021-02-22T01:58:00+09:00,1,�k,1.9,�k��,8.5,76.5,0,0,0,0
2021-02-22T01:59:00+09:00,0.9,�k,1.9,�k��,8.4,74.1,0,0,0,0
2021-02-22T02:00:00+09:00,0.9,�k,1.9,�k��,8.3,74.5,0,0,0,0
2021-02-22T02:01:00+09:00,0.9,�k,1.9,�k��,8.7,74.4,0,0,0,0
2021-02-22T02:02:00+09:00,0.8,�k�k��,1.6,�k,8.8,73.6,0,0,0,0
2021-02-22T02:03:00+09:00,0.8,�k�k��,1.6,�k,8.8,72.7,0,0,0,0
2021-02-22T02:04:00+09:00,0.7,�k�k��,1.6,�k,8.6,72.1,0,0,0,0
2021-02-22T02:05:00+09:00,0.7,�k�k��,1.6,�k,8.8,73.1,0,0,0,0
2021-02-22T02:06:00+09:00,0.8,�k�k��,1.6,�k,8.5,71.6,0,0,0,0
2021-02-22T02:07:00+09:00,0.9,�k��,1.8,�k��,8.3,72,0,0,0,0
2021-02-22T02:08:00+09:00,1,�k�k��,1.8,�k��,8.5,73.6,0,0,0,0
2021-02-22T02:09:00+09:00,0.9,�k��,1.8,�k��,8.6,73.7,0,0,0,0
2021-02-22T02:10:00+09:00,0.9,�k�k��,1.8,�k��,8.4,72.7,0,0,0,0
2021-02-22T02:11:00+09:00,0.9,�k�k��,1.8,�k��,8.1,72.9,0,0,0,0
2021-02-22T02:12:00+09:00,0.9,�k�k��,1.8,�k��,8.3,73.9,0,0,0,0
2021-02-22T02:13:00+09:00,1,�k�k��,1.8,�k��,8.2,73.9,0,0,0,0
2021-02-22T02:14:00+09:00,1,�k�k��,1.8,�k��,8.2,74,0,0,0,0
2021-02-22T02:15:00+09:00,0.9,�k�k��,1.8,�k��,8.4,75.3,0,0,0,0
2021-02-22T02:16:00+09:00,0.9,�k�k��,1.8,�k��,8.3,73.7,0,0,0,0
2021-02-22T02:17:00+09:00,0.9,�k�k��,1.6,�k��,8.3,73.9,0,0,0,0
2021-02-22T02:18:00+09:00,0.8,�k�k��,1.6,�k��,8.4,74.7,0,0,0,0
2021-02-22T02:19:00+09:00,0.9,�k�k��,1.6,�k��,8.8,75.5,0,0,0,0
2021-02-22T02:20:00+09:00,0.9,�k�k��,1.6,�k��,8.2,72.3,0,0,0,0
2021-02-22T02:21:00+09:00,0.8,�k�k��,1.6,�k��,8.1,73.3,0,0,0,0
2021-02-22T02:22:00+09:00,0.8,�k�k��,1.6,�k��,8.2,74.8,0,0,0,0
2021-02-22T02:23:00+09:00,0.7,�k�k��,1.6,�k��,8.6,74.8,0,0,0,0
2021-02-22T02:24:00+09:00,0.8,�k�k��,2.3,�쐼,9.7,76,0,0,0,0
2021-02-22T02:25:00+09:00,0.7,�k��,2.3,�쐼,9.5,70.7,0,0,0,0
2021-02-22T02:26:00+09:00,0.7,�k��,2.3,�쐼,9.1,68.8,0,0,0,0
2021-02-22T02:27:00+09:00,0.6,�k��,2.3,�쐼,8.8,69.6,0,0,0,0
2021-02-22T02:28:00+09:00,0.7,���k��,2.3,�쐼,8.8,71.3,0,0,0,0
2021-02-22T02:29:00+09:00,0.6,���k��,2.3,�쐼,8.7,71.1,0,0,0,0
2021-02-22T02:30:00+09:00,0.6,���k��,2.3,�쐼,8.3,71.2,0,0,0,0
2021-02-22T02:31:00+09:00,0.6,���k��,2.3,�쐼,8.3,72.9,0,0,0,0
2021-02-22T02:32:00+09:00,0.5,��,2.3,�쐼,8.7,74.9,0,0,0,0
2021-02-22T02:33:00+09:00,0.5,��,2.3,�쐼,8.9,73.4,0,0,0,0
2021-02-22T02:34:00+09:00,0.5,��,1.7,�쐼,9.7,73.7,0,0,0,0
2021-02-22T02:35:00+09:00,0.5,��,2,��,9.4,69.6,0,0,0,0
2021-02-22T02:36:00+09:00,0.5,���쓌,2,��,9.2,69.2,0,0,0,0
2021-02-22T02:37:00+09:00,0.5,�쓌,2,��,8.8,69,0,0,0,0
2021-02-22T02:38:00+09:00,0.5,��쓌,2,��,8.6,69.8,0,0,0,0
2021-02-22T02:39:00+09:00,0.7,��쓌,2.5,��쓌,9.6,72.4,0,0,0,0
2021-02-22T02:40:00+09:00,0.7,��,2.5,��쓌,10.1,70.2,0,0,0,0
2021-02-22T02:41:00+09:00,0.8,��,2.5,��쓌,10.7,68.7,0,0,0,0
2021-02-22T02:42:00+09:00,0.8,��,2.5,��쓌,11,66.5,0,0,0,0
2021-02-22T02:43:00+09:00,0.9,��,2.5,��쓌,11,64.6,0,0,0,0
2021-02-22T02:44:00+09:00,0.9,��,2.5,��쓌,10.2,63,0,0,0,0
2021-02-22T02:45:00+09:00,0.9,��,2.7,��,10,65.1,0,0,0,0
2021-02-22T02:46:00+09:00,1,��,3.3,��,10.5,67,0,0,0,0
2021-02-22T02:47:00+09:00,1,��,3.3,��,10.7,65.8,0,0,0,0
2021-02-22T02:48:00+09:00,1.2,��,5.3,��쐼,11.2,65.7,0,0,0,0
2021-02-22T02:49:00+09:00,1.3,��,5.7,��쓌,11.8,64.7,0,0,0,0
2021-02-22T02:50:00+09:00,1.5,��,5.7,��쓌,12.2,62.9,0,0,0,0
2021-02-22T02:51:00+09:00,1.5,��쐼,5.7,��쓌,11.6,60.9,0,0,0,0
2021-02-22T02:52:00+09:00,1.6,��쐼,5.7,��쓌,11.4,61.8,0,0,0,0
2021-02-22T02:53:00+09:00,1.6,��쐼,5.7,��쓌,11.5,61.5,0,0,0,0
2021-02-22T02:54:00+09:00,1.6,��쐼,5.7,��쓌,11.8,61.6,0,0,0,0
2021-02-22T02:55:00+09:00,1.6,��쐼,5.7,��쓌,11.5,60.6,0,0,0,0
2021-02-22T02:56:00+09:00,1.5,��쐼,5.7,��쓌,11.5,61.1,0,0,0,0
2021-02-22T02:57:00+09:00,1.6,��쐼,5.7,��쓌,11.8,61.2,0,0,0,0
2021-02-22T02:58:00+09:00,1.3,�쐼,5.7,��쓌,11.1,60.2,0,0,0,0
2021-02-22T02:59:00+09:00,1.2,�쐼,5.4,��,11.1,61.8,0,0,0,0
2021-02-22T03:00:00+09:00,1.2,�쐼,5.4,��,10.6,61.7,0,0,0,0
2021-02-22T03:01:00+09:00,1.2,�쐼,5.4,��,10.4,62.7,0,0,0,0
2021-02-22T03:02:00+09:00,1.2,�쐼,5.4,��,9.8,62.8,0,0,0,0
2021-02-22T03:03:00+09:00,1.2,�쐼,5.4,��,10.2,65.2,0,0,0,0
2021-02-22T03:04:00+09:00,1.1,�쐼,5.4,��,11,65.7,0,0,0,0
2021-02-22T03:05:00+09:00,1.1,�쐼,5.4,��,10.9,63.7,0,0,0,0
2021-02-22T03:06:00+09:00,1.1,�쐼,5.4,��,11.4,64.1,0,0,0,0
2021-02-22T03:07:00+09:00,1.2,�쐼,5.4,��,11.5,62.8,0,0,0,0
2021-02-22T03:08:00+09:00,1.2,��쐼,5.4,��,10.5,61,0,0,0,0
2021-02-22T03:09:00+09:00,1.2,��쐼,4.2,�쐼,10.8,64.2,0,0,0,0
2021-02-22T03:10:00+09:00,1.2,��쐼,4.2,�쐼,11.3,63.8,0,0,0,0
2021-02-22T03:11:00+09:00,1.2,��쐼,4.2,�쐼,11.1,62.2,0,0,0,0
2021-02-22T03:12:00+09:00,1.2,��쐼,4.2,�쐼,11.6,62.6,0,0,0,0
2021-02-22T03:13:00+09:00,1.2,��쐼,4.2,�쐼,12.2,61.4,0,0,0,0
2021-02-22T03:14:00+09:00,1.4,��쐼,4.5,��,12.2,59.6,0,0,0,0
2021-02-22T03:15:00+09:00,1.6,��쐼,4.6,��쐼,12.1,59.7,0,0,0,0
2021-02-22T03:16:00+09:00,1.6,��쐼,4.6,��쐼,11.9,59.8,0,0,0,0
2021-02-22T03:17:00+09:00,1.7,��쐼,4.6,��쐼,11.6,59.8,0,0,0,0
2021-02-22T03:18:00+09:00,1.8,��쐼,4.6,��쐼,11.8,60.9,0,0,0,0
2021-02-22T03:19:00+09:00,1.8,��쐼,6.4,��쓌,11.9,60.8,0,0,0,0
2021-02-22T03:20:00+09:00,1.9,��쐼,6.4,��쓌,11.9,60.7,0,0,0,0
2021-02-22T03:21:00+09:00,1.9,��쐼,6.4,��쓌,11.9,60.7,0,0,0,0
2021-02-22T03:22:00+09:00,2,��쐼,6.4,��쓌,12.3,60.7,0,0,0,0
2021-02-22T03:23:00+09:00,2,��쐼,6.4,��쓌,12.4,59.9,0,0,0,0
2021-02-22T03:24:00+09:00,2.2,��쐼,6.4,��쓌,12.6,59.8,0,0,0,0
2021-02-22T03:25:00+09:00,2.2,��쐼,6.4,��쓌,12.6,58.9,0,0,0,0
2021-02-22T03:26:00+09:00,2.3,��쐼,6.4,��쓌,12.8,59.1,0,0,0,0
2021-02-22T03:27:00+09:00,2.3,��쐼,6.4,��쓌,13.1,58.5,0,0,0,0
2021-02-22T03:28:00+09:00,2.4,��쐼,6.4,��쓌,13,57.6,0,0,0,0
2021-02-22T03:29:00+09:00,2.3,��쐼,4.9,�쐼,12.8,57.4,0,0,0,0
2021-02-22T03:30:00+09:00,2.1,��쐼,4.9,�쐼,12.3,57.3,0,0,0,0
2021-02-22T03:31:00+09:00,2,��쐼,4.9,�쐼,12.1,58.7,0,0,0,0
2021-02-22T03:32:00+09:00,2.1,��쐼,4.9,�쐼,12.3,59.2,0,0,0,0
2021-02-22T03:33:00+09:00,2.1,��쐼,4.9,�쐼,12.4,59,0,0,0,0
2021-02-22T03:34:00+09:00,2,��쐼,4.4,��,12.3,59,0,0,0,0
2021-02-22T03:35:00+09:00,1.9,��쐼,4.4,��,12.1,59.1,0,0,0,0
2021-02-22T03:36:00+09:00,1.7,��쐼,3.4,��쐼,11.9,59.6,0,0,0,0
2021-02-22T03:37:00+09:00,1.6,��쐼,3.4,��쐼,11.5,59.9,0,0,0,0
2021-02-22T03:38:00+09:00,1.5,��쐼,3.4,��쐼,11.5,61.3,0,0,0,0
2021-02-22T03:39:00+09:00,1.4,��쐼,3.4,��쐼,11.3,62,0,0,0,0
2021-02-22T03:40:00+09:00,1.3,��쐼,3.4,��쐼,12,62.1,0,0,0,0
2021-02-22T03:41:00+09:00,1.2,��쐼,3.4,��쐼,12.1,60.4,0,0,0,0
2021-02-22T03:42:00+09:00,1,�쐼,3.4,��쐼,11.8,60.2,0,0,0,0
2021-02-22T03:43:00+09:00,0.8,�쐼,3.4,��쐼,11.9,60.5,0,0,0,0
2021-02-22T03:44:00+09:00,0.8,�쐼,3.4,��쐼,11.2,59.6,0,0,0,0
2021-02-22T03:45:00+09:00,0.7,�쐼,2.3,���쐼,11.1,61.8,0,0,0,0
2021-02-22T03:46:00+09:00,0.6,���쐼,2.3,���쐼,11.4,62,0,0,0,0
2021-02-22T03:47:00+09:00,0.6,���쐼,2.3,���쐼,10.9,61.1,0,0,0,0
2021-02-22T03:48:00+09:00,0.5,�쐼,1.9,��쐼,11.5,62.5,0,0,0,0
2021-02-22T03:49:00+09:00,0.5,�쐼,1.9,��쐼,11.5,61,0,0,0,0
2021-02-22T03:50:00+09:00,0.5,���쐼,1.9,��쐼,11.4,61.3,0,0,0,0
2021-02-22T03:51:00+09:00,0.6,�쐼,1.9,��쐼,11.5,61.6,0,0,0,0
2021-02-22T03:52:00+09:00,0.6,�쐼,1.9,��쐼,11,60.9,0,0,0,0
2021-02-22T03:53:00+09:00,0.5,�쐼,1.2,�쐼,11,62.1,0,0,0,0
2021-02-22T03:54:00+09:00,0.4,�쐼,1.1,��쓌,10.8,62.5,0,0,0,0
2021-02-22T03:55:00+09:00,0.4,��쐼,1.1,��쓌,10.9,63.5,0,0,0,0
2021-02-22T03:56:00+09:00,0.3,��쐼,1.1,��쓌,10.8,62.8,0,0,0,0
2021-02-22T03:57:00+09:00,0.3,��쐼,1.1,��쓌,10.9,63.6,0,0,0,0
2021-02-22T03:58:00+09:00,0.3,��쐼,1,���쐼,11.4,63.3,0,0,0,0
2021-02-22T03:59:00+09:00,0.2,�É�,0.8,�쓌,10.7,60.6,0,0,0,0
2021-02-22T04:00:00+09:00,0.4,��,2.4,���쓌,9.8,61.3,0,0,0,0
2021-02-22T04:01:00+09:00,0.5,��쓌,2.4,���쓌,9.1,64.6,0,0,0,0
2021-02-22T04:02:00+09:00,0.6,�쓌,2.4,���쓌,8.6,67,0,0,0,0
2021-02-22T04:03:00+09:00,0.7,�쓌,2.4,���쓌,8.3,69.5,0,0,0,0
2021-02-22T04:04:00+09:00,0.8,�쓌,2.4,���쓌,8.3,71.5,0,0,0,0
2021-02-22T04:05:00+09:00,0.8,�쓌,2.4,���쓌,8.3,73.1,0,0,0,0
2021-02-22T04:06:00+09:00,0.9,���쓌,2.4,���쓌,8.8,75.3,0,0,0,0
2021-02-22T04:07:00+09:00,1,���쓌,2.4,���쓌,9.2,74.9,0,0,0,0
2021-02-22T04:08:00+09:00,1.1,���쓌,2.4,���쓌,9.4,72.6,0,0,0,0
2021-02-22T04:09:00+09:00,1.1,���쓌,2.4,���쓌,9.6,71.5,0,0,0,0
2021-02-22T04:10:00+09:00,1.1,�쓌,1.8,��쓌,9.2,69.8,0,0,0,0
2021-02-22T04:11:00+09:00,1.1,�쓌,2,�쓌,9,70.3,0,0,0,0
2021-02-22T04:12:00+09:00,1.2,�쓌,2,�쓌,9.1,71.7,0,0,0,0
2021-02-22T04:13:00+09:00,1.2,�쓌,2,�쓌,9.4,72.3,0,0,0,0
2021-02-22T04:14:00+09:00,1.2,�쓌,2,�쓌,9.2,70.8,0,0,0,0
2021-02-22T04:15:00+09:00,1.2,��쓌,2,�쓌,9.6,71.4,0,0,0,0
2021-02-22T04:16:00+09:00,1.3,��쓌,2,�쓌,9.9,70.7,0,0,0,0
2021-02-22T04:17:00+09:00,1.2,��쓌,2,�쓌,9.8,69.1,0,0,0,0
2021-02-22T04:18:00+09:00,1.2,��쓌,2,�쓌,9.7,68.9,0,0,0,0
2021-02-22T04:19:00+09:00,1.1,��쓌,2,�쓌,9.8,69.1,0,0,0,0
2021-02-22T04:20:00+09:00,1.1,��쓌,2,�쓌,9.4,67.4,0,0,0,0
2021-02-22T04:21:00+09:00,1.1,��쓌,1.8,��쓌,9.1,67.9,0,0,0,0
2021-02-22T04:22:00+09:00,1.1,��쓌,2.4,��,9.5,69.7,0,0,0,0
2021-02-22T04:23:00+09:00,1.2,��쓌,2.4,��,10,69.8,0,0,0,0
2021-02-22T04:24:00+09:00,1.2,��,2.4,��,10.2,68.2,0,0,0,0
2021-02-22T04:25:00+09:00,1.3,��,2.4,��,10.4,67.7,0,0,0,0
2021-02-22T04:26:00+09:00,1.3,��,2.4,��,9.9,65.6,0,0,0,0
2021-02-22T04:27:00+09:00,1.3,��,2.4,��,9.6,66.3,0,0,0,0
2021-02-22T04:28:00+09:00,1.3,��,2.4,��,9.4,67.3,0,0,0,0
2021-02-22T04:29:00+09:00,1.4,��,2.4,��,9.4,67.8,0,0,0,0
2021-02-22T04:30:00+09:00,1.3,��,2.4,��,9.7,69,0,0,0,0
2021-02-22T04:31:00+09:00,1.3,��,2.4,��,9.1,67.4,0,0,0,0
2021-02-22T04:32:00+09:00,1.2,��,2.4,��,8.3,68.4,0,0,0,0
2021-02-22T04:33:00+09:00,1.2,��,2.4,��,8,70.7,0,0,0,0
2021-02-22T04:34:00+09:00,1.1,��,2.2,��쐼,8.2,73.7,0,0,0,0
2021-02-22T04:35:00+09:00,0.9,��쐼,2,��,8.4,74.9,0,0,0,0
2021-02-22T04:36:00+09:00,0.8,�k�k��,2,��,8.8,75.5,0,0,0,0
2021-02-22T04:37:00+09:00,0.8,�k��,2,��,9.1,75.1,0,0,0,0
2021-02-22T04:38:00+09:00,0.7,�k��,2,��,8.7,72.5,0,0,0,0
2021-02-22T04:39:00+09:00,0.6,�k��,1.6,��쐼,8.7,72.7,0,0,0,0
2021-02-22T04:40:00+09:00,0.6,�k��,1.5,�k��,8.4,72.5,0,0,0,0
2021-02-22T04:41:00+09:00,0.5,�k��,1.5,�k��,8.3,73.3,0,0,0,0
2021-02-22T04:42:00+09:00,0.5,���k��,1.4,�k,8.2,73.9,0,0,0,0
2021-02-22T04:43:00+09:00,0.4,��,1.4,�k,8.5,74.7,0,0,0,0
2021-02-22T04:44:00+09:00,0.4,��,1.2,��,8.5,74.5,0,0,0,0
2021-02-22T04:45:00+09:00,0.3,���쐼,1.2,��,8.1,72.1,0,0,0,0
2021-02-22T04:46:00+09:00,0.4,���쐼,1.2,��,8.5,75.1,0,0,0,0
2021-02-22T04:47:00+09:00,0.4,�쐼,1.2,��,8.5,73.9,0,0,0,0
2021-02-22T04:48:00+09:00,0.4,�쐼,1.2,��,8.8,74.7,0,0,0,0
2021-02-22T04:49:00+09:00,0.4,��쐼,1.2,��,7.8,70.1,0,0,0,0
2021-02-22T04:50:00+09:00,0.5,��쐼,1.2,��,7.5,71.8,0,0,0,0
2021-02-22T04:51:00+09:00,0.5,��,1.2,��,7.7,75.1,0,0,0,0
2021-02-22T04:52:00+09:00,0.5,��,1.2,��,7.9,76.4,0,0,0,0
2021-02-22T04:53:00+09:00,0.5,��,1.2,��,8.4,76.5,0,0,0,0
2021-02-22T04:54:00+09:00,0.7,��쓌,2.1,��쐼,8.8,76.7,0,0,0,0
2021-02-22T04:55:00+09:00,0.8,��쓌,2.8,��,9.1,74.9,0,0,0,0
2021-02-22T04:56:00+09:00,1,��,2.8,��,9.7,73.9,0,0,0,0
2021-02-22T04:57:00+09:00,1,��,2.8,��,9.9,71.5,0,0,0,0
2021-02-22T04:58:00+09:00,1.1,��,2.8,��,9.8,69.2,0,0,0,0
2021-02-22T04:59:00+09:00,1.2,��,2.8,��,9.9,69.1,0,0,0,0
2021-02-22T05:00:00+09:00,1.3,��쐼,2.8,��,9.7,68,0,0,0,0
2021-02-22T05:01:00+09:00,1.5,��쐼,2.8,��,9.8,68.3,0,0,0,0
2021-02-22T05:02:00+09:00,1.6,��쐼,2.8,��,9.9,68.2,0,0,0,0
2021-02-22T05:03:00+09:00,1.7,��쐼,2.8,��,9.8,67.6,0,0,0,0
2021-02-22T05:04:00+09:00,1.8,��쐼,2.8,��,9.9,67.4,0,0,0,0
2021-02-22T05:05:00+09:00,1.8,��쐼,2.7,��,9.9,67.2,0,0,0,0
2021-02-22T05:06:00+09:00,1.8,��쐼,2.7,��,10.1,67.2,0,0,0,0
2021-02-22T05:07:00+09:00,1.9,��쐼,3,��,10.3,67.4,0,0,0,0
2021-02-22T05:08:00+09:00,2,��쐼,3,��,10.4,66.5,0,0,0,0
2021-02-22T05:09:00+09:00,2.1,��쐼,3,��,10.4,66,0,0,0,0
2021-02-22T05:10:00+09:00,2.1,��쐼,3.5,��쐼,10.9,66.3,0,0,0,0
2021-02-22T05:11:00+09:00,2.1,��쐼,3.5,��쐼,11,64.6,0,0,0,0
2021-02-22T05:12:00+09:00,2.1,��쐼,3.5,��쐼,10.8,63.8,0,0,0,0
2021-02-22T05:13:00+09:00,2,��쐼,3.5,��쐼,10.7,63.9,0,0,0,0
2021-02-22T05:14:00+09:00,2.1,��쐼,3.8,��,11.1,64.4,0,0,0,0
2021-02-22T05:15:00+09:00,2.1,��쐼,3.8,��,11,63.1,0,0,0,0
2021-02-22T05:16:00+09:00,2,��쐼,3.8,��,10.8,63,0,0,0,0
2021-02-22T05:17:00+09:00,2,��쐼,3.8,��,11.2,63.9,0,0,0,0
2021-02-22T05:18:00+09:00,2,��쐼,3.8,��,11.2,62.8,0,0,0,0
2021-02-22T05:19:00+09:00,2.1,��쐼,4.5,��쐼,11.2,62.5,0,0,0,0
2021-02-22T05:20:00+09:00,2.1,��쐼,4.5,��쐼,11.2,62.7,0,0,0,0
2021-02-22T05:21:00+09:00,2.2,��쐼,4.5,��쐼,11.3,62.6,0,0,0,0
2021-02-22T05:22:00+09:00,2.3,��쐼,4.5,��쐼,11.3,62.4,0,0,0,0
2021-02-22T05:23:00+09:00,2.4,��쐼,4.5,��쐼,11.2,62.3,0,0,0,0
2021-02-22T05:24:00+09:00,2.5,��쐼,4.5,��쐼,11.4,62.5,0,0,0,0
2021-02-22T05:25:00+09:00,2.6,��쐼,4.5,��쐼,11.5,62.1,0,0,0,0
2021-02-22T05:26:00+09:00,2.7,��쐼,4.5,��쐼,11.3,61.8,0,0,0,0
2021-02-22T05:27:00+09:00,2.7,��쐼,4.5,��쐼,11.2,62.1,0,0,0,0
2021-02-22T05:28:00+09:00,2.7,��쐼,4.5,��쐼,11.3,62.4,0,0,0,0
2021-02-22T05:29:00+09:00,2.7,��쐼,4.2,��,11.4,62.5,0,0,0,0
2021-02-22T05:30:00+09:00,2.8,��쐼,4.2,��,11.6,61.9,0,0,0,0
2021-02-22T05:31:00+09:00,2.7,��쐼,4.2,��,11.5,61.3,0,0,0,0
2021-02-22T05:32:00+09:00,2.7,��쐼,4.2,��,11.5,61.6,0,0,0,0
2021-02-22T05:33:00+09:00,2.7,��쐼,4.2,��,11.3,61.6,0,0,0,0
2021-02-22T05:34:00+09:00,2.7,��쐼,3.9,��,11.3,62.1,0,0,0,0
2021-02-22T05:35:00+09:00,2.7,��쐼,3.9,��,11,62,0,0,0,0
2021-02-22T05:36:00+09:00,2.6,��쐼,3.9,��,10.9,62.7,0,0,0,0
2021-02-22T05:37:00+09:00,2.6,��쐼,3.9,��,10.9,63,0,0,0,0
2021-02-22T05:38:00+09:00,2.4,��쐼,3.6,��쐼,10.8,63.2,0,0,0,0
2021-02-22T05:39:00+09:00,2.4,��쐼,3.6,��쐼,10.9,63.8,0,0,0,0
2021-02-22T05:40:00+09:00,2.3,��쐼,3.6,��쐼,10.9,63.7,0,0,0,0
2021-02-22T05:41:00+09:00,2.3,��쐼,3.6,��쐼,11,63.8,0,0,0,0
2021-02-22T05:42:00+09:00,2.2,��쐼,3.6,��쐼,11,63.5,0,0,0,0
2021-02-22T05:43:00+09:00,2.1,��쐼,3.5,��쐼,11,63.4,0,0,0,0
2021-02-22T05:44:00+09:00,2,��쐼,3.4,��쐼,11,63.5,0,0,0,0
2021-02-22T05:45:00+09:00,1.9,��쐼,3.4,��쐼,11,63.5,0,0,0,0
2021-02-22T05:46:00+09:00,1.9,��쐼,3.4,��쐼,11.1,63.5,0,0,0,0
2021-02-22T05:47:00+09:00,1.9,��쐼,2.9,��쐼,11.1,63.3,0,0,0,0
2021-02-22T05:48:00+09:00,2,��쐼,2.9,��쐼,10.8,62.9,0,0,0,0
2021-02-22T05:49:00+09:00,1.9,��쐼,2.9,��쐼,10.7,63.7,0,0,0,0
2021-02-22T05:50:00+09:00,1.9,��쐼,2.9,��쐼,10.6,63.9,0,0,0,0
2021-02-22T05:51:00+09:00,1.8,��쐼,2.6,��쐼,10.8,64.5,0,0,0,0
2021-02-22T05:52:00+09:00,1.8,��쐼,2.6,��쐼,10.7,64.2,0,0,0,0
2021-02-22T05:53:00+09:00,1.9,��쐼,2.6,��쐼,10.8,64.4,0,0,0,0
2021-02-22T05:54:00+09:00,1.9,��쐼,2.6,��쐼,10.6,64,0,0,0,0
2021-02-22T05:55:00+09:00,1.9,��쐼,2.6,��쐼,10.8,64.8,0,0,0,0
2021-02-22T05:56:00+09:00,1.8,��쐼,2.6,��쐼,10.9,64.7,0,0,0,0
2021-02-22T05:57:00+09:00,1.8,��쐼,2.6,��쐼,10.9,64,0,0,0,0
2021-02-22T05:58:00+09:00,1.7,��쐼,2.5,��쐼,10.7,63.9,0,0,0,0
2021-02-22T05:59:00+09:00,1.6,��쐼,2.5,��쐼,10.4,64,0,0,0,0
2021-02-22T06:00:00+09:00,1.5,��쐼,2.5,��쐼,9.7,64.3,0,0,0,0
2021-02-22T06:01:00+09:00,1.5,��쐼,2.5,��쐼,10.1,66.9,0,0,0,0
2021-02-22T06:02:00+09:00,1.4,��쐼,2.5,��쐼,10.3,67,0,0,0,0
2021-02-22T06:03:00+09:00,1.4,��쐼,2.5,��쐼,10.4,66.4,0,0,0,0
2021-02-22T06:04:00+09:00,1.3,��쐼,2.4,��,10.1,65.8,0,0,0,0
2021-02-22T06:05:00+09:00,1.3,��쐼,2.4,��,9.8,66.2,0,0,0,0
2021-02-22T06:06:00+09:00,1.3,��쐼,2.5,��,9.7,67,0,0,0,0
2021-02-22T06:07:00+09:00,1.3,��쐼,2.5,��,10.1,68.4,0,0,0,0
2021-02-22T06:08:00+09:00,1.3,��,2.5,��,9.7,66.9,0,0,0,0
2021-02-22T06:09:00+09:00,1.4,��,3.1,��,9.4,67.3,0,0,0,0
2021-02-22T06:10:00+09:00,1.6,��,4.1,��,10.1,69.6,0,0,0,0
2021-02-22T06:11:00+09:00,1.8,��,4.1,��,10.7,69,0,0,0,0
2021-02-22T06:12:00+09:00,1.8,��,4.1,��,11,67.3,0,0,0,0
2021-02-22T06:13:00+09:00,1.9,��,4.1,��,11.2,66,0,0,0,0
2021-02-22T06:14:00+09:00,1.9,��,4.1,��,10.5,63.7,0,0,0,0
2021-02-22T06:15:00+09:00,1.8,��,4.1,��,10,64.4,0,0,0,0
2021-02-22T06:16:00+09:00,1.9,��,4.1,��,10.3,66.5,0,0,0,0
2021-02-22T06:17:00+09:00,1.9,��,4.1,��,10.1,66.3,0,0,0,0
2021-02-22T06:18:00+09:00,1.9,��,4.1,��,10,66.5,0,0,0,0
2021-02-22T06:19:00+09:00,1.9,��,4.1,��,10,67.5,0,0,0,0
2021-02-22T06:20:00+09:00,1.8,��,4,��,10.3,68.2,0,0,0,0
2021-02-22T06:21:00+09:00,1.6,��,3.8,��,10.4,67.5,0,0,0,0
2021-02-22T06:22:00+09:00,1.6,��,2.7,��,10.3,67.1,0,0,0,0
2021-02-22T06:23:00+09:00,1.6,��,2.9,��쓌,10.5,67.5,0,0,0,0
2021-02-22T06:24:00+09:00,1.6,��쓌,2.9,��쓌,10.5,66.9,0,0,0,0
2021-02-22T06:25:00+09:00,1.7,��쓌,2.9,��쓌,10.6,66.8,0,0,0,0
2021-02-22T06:26:00+09:00,1.6,��쓌,2.9,��쓌,10.6,66.2,0,0,0,0
2021-02-22T06:27:00+09:00,1.6,��,2.9,��쓌,10.8,66.3,0,0,0,0
2021-02-22T06:28:00+09:00,1.7,��,2.9,��쓌,11,65.6,0,0,0,0
2021-02-22T06:29:00+09:00,1.7,��,3.6,��쐼,10.8,64.7,0,0,0,0
2021-02-22T06:30:00+09:00,1.8,��,3.6,��쐼,11.2,65.2,0,0,0,0
2021-02-22T06:31:00+09:00,1.8,��,3.6,��쐼,11.3,64.2,0,0,0,0
2021-02-22T06:32:00+09:00,2,��,5.4,��,11.3,63.8,0,0,0,0
2021-02-22T06:33:00+09:00,2.1,��,5.4,��,11.6,63.5,0,0,0,0
2021-02-22T06:34:00+09:00,2.1,��,5.4,��,11.5,62.8,0,0,0,0
2021-02-22T06:35:00+09:00,2.2,��,5.4,��,11.2,62.6,0,0,0,0
2021-02-22T06:36:00+09:00,2.3,��,5.4,��,10.8,62.9,0,0,0,0
2021-02-22T06:37:00+09:00,2.3,��,5.4,��,10.9,64.2,0,0,0,0
2021-02-22T06:38:00+09:00,2.4,��,5.4,��,11.2,64.2,0,0,0,0
2021-02-22T06:39:00+09:00,2.4,��쐼,5.4,��,11,63.4,0,0,0,0
2021-02-22T06:40:00+09:00,2.4,��쐼,5.4,��,11.2,64,0,0,0,0
2021-02-22T06:41:00+09:00,2.5,��쐼,5.4,��,11.3,63.7,0,0,0,0
2021-02-22T06:42:00+09:00,2.4,��쐼,4.4,��,11.4,63.1,0,0,0,0